| time (UTC) | temp F | wind direction | speed knots | gust knots | rain 1hr in | rain 24hr in | rain mn in | humidity % | barometer mb |
| 20260509212637 | 68 | 201 | 6.1 | 13.0 | 0.00 | 0.19 | 0.20 | 56 | 1006.8 |
| 20260509211605 | 67 | 202 | 5.2 | 9.6 | 0.00 | 0.19 | 0.20 | 57 | 1006.8 |
| 20260509210533 | 68 | 198 | 2.6 | 10.4 | 0.00 | 0.19 | 0.20 | 59 | 1007.0 |
| 20260509205530 | 68 | 212 | 6.1 | 13.9 | 0.00 | 0.19 | 0.20 | 57 | 1006.9 |
| 20260509204520 | 67 | 195 | 4.3 | 13.9 | 0.00 | 0.19 | 0.20 | 59 | 1006.9 |
| 20260509203456 | 67 | 172 | 4.3 | 12.2 | 0.00 | 0.19 | 0.20 | 60 | 1007.1 |
| 20260509202447 | 67 | 156 | 4.3 | 8.7 | 0.00 | 0.19 | 0.20 | 60 | 1007.2 |
| 20260509201422 | 67 | 179 | 4.3 | 11.3 | 0.00 | 0.19 | 0.20 | 64 | 1007.4 |
| 20260509200434 | 67 | 201 | 3.5 | 12.2 | 0.00 | 0.19 | 0.20 | 64 | 1007.4 |
| 20260509195420 | 66 | 168 | 5.2 | 12.2 | 0.00 | 0.19 | 0.20 | 65 | 1007.5 |
| 20260509194356 | 65 | 172 | 5.2 | 11.3 | 0.00 | 0.19 | 0.20 | 65 | 1007.7 |
| 20260509193339 | 65 | 181 | 3.5 | 10.4 | 0.00 | 0.19 | 0.20 | 68 | 1008.0 |
| 20260509192329 | 65 | 186 | 5.2 | 12.2 | 0.00 | 0.19 | 0.20 | 66 | 1008.0 |
| 20260509191340 | 64 | 214 | 5.2 | 12.2 | 0.00 | 0.19 | 0.20 | 65 | 1008.2 |
| 20260509185150 | 64 | 168 | 2.6 | 9.6 | 0.00 | 0.19 | 0.20 | 69 | 1008.3 |
| 20260509184139 | 64 | 89 | 2.6 | 9.6 | 0.00 | 0.19 | 0.20 | 72 | 1008.3 |
| 20260509183136 | 63 | 144 | 1.7 | 7.0 | 0.00 | 0.19 | 0.20 | 74 | 1008.4 |
| 20260509182158 | 62 | 164 | 2.6 | 6.1 | 0.00 | 0.19 | 0.20 | 79 | 1008.5 |
| 20260509181203 | 60 | 154 | 2.6 | 5.2 | 0.00 | 0.19 | 0.20 | 81 | 1008.5 |
| 20260509180146 | 59 | 181 | 1.7 | 7.0 | 0.00 | 0.19 | 0.20 | 84 | 1008.6 |
| 20260509175123 | 58 | 151 | 2.6 | 7.0 | 0.00 | 0.19 | 0.20 | 85 | 1008.6 |
| 20260509174140 | 58 | 172 | 3.5 | 7.0 | 0.00 | 0.19 | 0.20 | 85 | 1008.6 |
| 20260509173118 | 58 | 188 | 3.5 | 7.0 | 0.00 | 0.19 | 0.20 | 86 | 1008.5 |
| 20260509170928 | 57 | 191 | 1.7 | 4.3 | 0.00 | 0.19 | 0.20 | 89 | 1008.3 |
| 20260509165855 | 57 | 137 | 0.9 | 7.8 | 0.00 | 0.19 | 0.20 | 89 | 1008.2 |
| 20260509164838 | 56 | 105 | 2.6 | 7.8 | 0.00 | 0.19 | 0.20 | 90 | 1008.1 |
| 20260509162728 | 56 | 105 | 1.7 | 8.7 | 0.04 | 0.19 | 0.20 | 91 | 1008.1 |
| 20260509161742 | 55 | 51 | 3.5 | 8.7 | 0.04 | 0.19 | 0.20 | 91 | 1008.0 |
| 20260509160751 | 55 | 156 | 2.6 | 8.7 | 0.00 | 0.19 | 0.19 | 91 | 1008.0 |
| 20260509155722 | 55 | 148 | 1.7 | 8.7 | 0.00 | 0.18 | 0.18 | 90 | 1008.2 |
| 20260509154739 | 55 | 111 | 2.6 | 8.7 | 0.00 | 0.18 | 0.18 | 90 | 1008.2 |
| 20260509153730 | 56 | 171 | 2.6 | 7.8 | 0.00 | 0.18 | 0.18 | 91 | 1008.2 |
| 20260509152713 | 56 | 95 | 0.9 | 3.5 | 0.00 | 0.18 | 0.18 | 92 | 1008.1 |
| 20260509151655 | 55 | 147 | 0.9 | 5.2 | 0.00 | 0.18 | 0.18 | 93 | 1008.3 |
| 20260509150632 | 54 | 147 | 1.7 | 5.2 | 0.00 | 0.18 | 0.18 | 92 | 1008.6 |
| 20260509145630 | 54 | 163 | 1.7 | 5.2 | 0.00 | 0.18 | 0.18 | 92 | 1008.7 |
| 20260509144641 | 54 | 161 | 0.9 | 7.0 | 0.00 | 0.18 | 0.18 | 92 | 1008.7 |
| 20260509143641 | 54 | 99 | 1.7 | 7.0 | 0.00 | 0.16 | 0.17 | 93 | 1008.7 |
| 20260509141447 | 53 | 202 | 1.7 | 6.1 | 0.00 | 0.16 | 0.17 | 93 | 1008.7 |
| 20260509140502 | 53 | 217 | 1.7 | 6.1 | 0.00 | 0.16 | 0.17 | 93 | 1008.8 |
| 20260509135507 | 53 | 161 | 1.7 | 6.1 | 0.00 | 0.16 | 0.16 | 93 | 1008.9 |
| 20260509134459 | 53 | 165 | 0.0 | 6.1 | 0.04 | 0.16 | 0.16 | 93 | 1008.9 |
| 20260509133455 | 53 | 156 | 0.0 | 2.6 | 0.00 | 0.14 | 0.15 | 93 | 1008.9 |
| 20260509132513 | 53 | 148 | 0.9 | 4.3 | 0.00 | 0.14 | 0.15 | 93 | 1009.0 |
| 20260509131519 | 53 | 134 | 0.0 | 4.3 | 0.05 | 0.13 | 0.13 | 93 | 1009.0 |
| 20260509130517 | 52 | 120 | 0.0 | 3.5 | 0.05 | 0.13 | 0.13 | 93 | 1009.0 |
| 20260509125510 | 52 | 122 | 0.0 | 4.3 | 0.05 | 0.13 | 0.13 | 93 | 1009.1 |
| 20260509124531 | 52 | 146 | 0.0 | 4.3 | 0.06 | 0.12 | 0.12 | 93 | 1009.2 |
| 20260509123457 | 52 | 79 | 0.0 | 3.5 | 0.08 | 0.10 | 0.10 | 93 | 1009.2 |
| 20260509122508 | 52 | 154 | 0.0 | 4.3 | 0.06 | 0.09 | 0.10 | 93 | 1009.2 |
| 20260509121507 | 52 | 169 | 0.9 | 4.3 | 0.05 | 0.09 | 0.09 | 93 | 1009.2 |
| 20260509115427 | 52 | 129 | 0.0 | 2.6 | 0.00 | 0.06 | 0.06 | 92 | 1009.1 |
| 20260509114431 | 52 | 89 | 0.0 | 1.7 | 0.00 | 0.06 | 0.06 | 92 | 1009.0 |
| 20260509113438 | 52 | 111 | 0.0 | 2.6 | 0.00 | 0.06 | 0.06 | 92 | 1009.1 |
| 20260509111307 | 52 | 105 | 0.0 | 2.6 | 0.00 | 0.06 | 0.06 | 92 | 1009.0 |
| 20260509110315 | 52 | 96 | 0.0 | 0.9 | 0.00 | 0.06 | 0.06 | 92 | 1008.9 |
| 20260509105307 | 52 | 99 | 0.0 | 0.0 | 0.00 | 0.06 | 0.06 | 92 | 1008.9 |
| 20260509104300 | 52 | 98 | 0.0 | 0.0 | 0.00 | 0.04 | 0.05 | 91 | 1008.9 |
| 20260509103247 | 52 | 120 | 0.0 | 0.9 | 0.00 | 0.04 | 0.05 | 91 | 1008.9 |
| 20260509102300 | 52 | 111 | 0.0 | 0.9 | 0.00 | 0.04 | 0.05 | 91 | 1008.9 |
| 20260509101225 | 52 | 90 | 0.0 | 0.0 | 0.00 | 0.04 | 0.04 | 90 | 1009.0 |
| 20260509100226 | 52 | 156 | 0.0 | 2.6 | 0.00 | 0.04 | 0.04 | 90 | 1009.1 |
| 20260509094107 | 52 | 147 | 0.0 | 0.0 | 0.00 | 0.03 | 0.03 | 89 | 1009.1 |
| 20260509093047 | 52 | 156 | 0.0 | 0.9 | 0.04 | 0.03 | 0.03 | 89 | 1009.2 |
| 20260509092106 | 53 | 63 | 0.0 | 3.5 | 0.04 | 0.03 | 0.03 | 88 | 1009.4 |
| 20260509091047 | 53 | 156 | 0.9 | 4.3 | 0.00 | 0.02 | 0.02 | 87 | 1009.5 |
| 20260509090026 | 53 | 163 | 2.6 | 6.1 | 0.00 | 0.01 | 0.01 | 85 | 1009.5 |
| 20260509085039 | 54 | 166 | 2.6 | 7.8 | 0.00 | 0.01 | 0.01 | 84 | 1009.6 |
| 20260509084049 | 54 | 171 | 3.5 | 8.7 | 0.00 | 0.00 | 0.00 | 83 | 1009.6 |
| 20260509083100 | 54 | 177 | 4.3 | 9.6 | 0.00 | 0.00 | 0.00 | 83 | 1009.6 |
| 20260509082042 | 52 | 170 | 1.7 | 9.6 | 0.00 | 0.00 | 0.00 | 88 | 1009.4 |
| 20260509081035 | 52 | 116 | 0.0 | 2.6 | 0.00 | 0.00 | 0.00 | 89 | 1009.2 |
| 20260509074912 | 52 | 172 | 0.0 | 0.0 | 0.00 | 0.00 | 0.00 | 88 | 1008.5 |
| 20260509073930 | 52 | 158 | 0.0 | 0.0 | 0.00 | 0.00 | 0.00 | 88 | 1008.3 |
| 20260509071851 | 52 | 152 | 0.0 | 0.0 | 0.00 | 0.00 | 0.00 | 87 | 1008.0 |
| 20260509070821 | 52 | 281 | 0.0 | 0.0 | 0.00 | 0.00 | 0.00 | 86 | 1007.9 |
| 20260509065831 | 52 | 285 | 0.0 | 0.0 | 0.00 | 0.00 | 0.00 | 87 | 1007.9 |
| 20260509064814 | 52 | 285 | 0.0 | 0.0 | 0.00 | 0.00 | 0.00 | 85 | 1007.9 |
| 20260509063820 | 52 | 275 | 0.0 | 0.0 | 0.00 | 0.00 | 0.00 | 83 | 1007.9 |
| 20260509062809 | 53 | 270 | 0.0 | 0.0 | 0.00 | 0.00 | 0.00 | 80 | 1008.1 |
| 20260509060708 | 53 | 267 | 0.0 | 0.0 | 0.00 | 0.00 | 0.00 | 81 | 1008.5 |
| 20260509055732 | 53 | 267 | 0.0 | 0.0 | 0.00 | 0.00 | 0.00 | 82 | 1008.8 |
| 20260509054744 | 53 | 312 | 0.0 | 0.0 | 0.00 | 0.00 | 0.00 | 82 | 1009.0 |
| 20260509053736 | 53 | 220 | 0.0 | 0.0 | 0.00 | 0.00 | 0.00 | 82 | 1009.2 |
| 20260509052740 | 53 | 154 | 0.0 | 0.0 | 0.00 | 0.00 | 0.00 | 82 | 1009.3 |
| 20260509051712 | 53 | 154 | 0.0 | 0.0 | 0.00 | 0.00 | 0.00 | 81 | 1009.3 |
| 20260509050732 | 53 | 98 | 0.0 | 0.0 | 0.00 | 0.00 | 0.00 | 82 | 1009.4 |
| 20260509045700 | 53 | 99 | 0.0 | 0.9 | 0.00 | 0.00 | 0.00 | 83 | 1009.4 |
| 20260509044642 | 53 | 0 | 0.0 | 0.0 | 0.00 | 0.00 | 0.00 | 86 | 1009.5 |
| 20260509040326 | 53 | 281 | 0.0 | 0.9 | 0.00 | 0.00 | 0.00 | 86 | 1009.5 |
| 20260509033055 | 54 | 240 | 0.0 | 0.0 | 0.00 | 0.00 | 0.00 | 83 | 1010.0 |
| 20260509032033 | 54 | 285 | 0.0 | 0.9 | 0.00 | 0.00 | 0.00 | 83 | 1010.1 |
| 20260509031038 | 54 | 281 | 0.0 | 0.0 | 0.00 | 0.00 | 0.00 | 83 | 1010.2 |
| 20260509030021 | 54 | 274 | 0.0 | 0.0 | 0.00 | 0.00 | 0.00 | 82 | 1010.4 |
| 20260509024958 | 54 | 291 | 0.0 | 0.0 | 0.00 | 0.00 | 0.00 | 82 | 1010.6 |
| 20260509023927 | 54 | 312 | 0.0 | 0.0 | 0.00 | 0.00 | 0.00 | 81 | 1010.5 |
| 20260509021844 | 54 | 147 | 0.0 | 0.0 | 0.00 | 0.00 | 0.00 | 79 | 1010.6 |
| 20260509020816 | 55 | 238 | 0.0 | 0.0 | 0.00 | 0.00 | 0.00 | 79 | 1010.3 |
| 20260509015800 | 55 | 298 | 0.0 | 0.0 | 0.00 | 0.00 | 0.00 | 76 | 1010.1 |
| 20260509014736 | 56 | 252 | 0.0 | 0.0 | 0.00 | 0.00 | 0.00 | 74 | 1010.1 |
| 20260509013751 | 56 | 306 | 0.0 | 0.0 | 0.00 | 0.00 | 0.00 | 74 | 1010.0 |
| 20260509012721 | 56 | 317 | 0.0 | 0.0 | 0.00 | 0.00 | 0.00 | 73 | 1009.9 |
| 20260509011706 | 57 | 317 | 0.0 | 0.0 | 0.00 | 0.00 | 0.00 | 70 | 1009.6 |
| 20260509010716 | 57 | 317 | 0.0 | 0.0 | 0.00 | 0.00 | 0.00 | 69 | 1009.4 |
| 20260509004604 | 57 | 298 | 0.0 | 0.0 | 0.00 | 0.00 | 0.00 | 69 | 1009.3 |
| 20260509001349 | 58 | 351 | 0.0 | 1.7 | 0.00 | 0.00 | 0.00 | 65 | 1009.3 |
| 20260509000326 | 58 | 285 | 0.0 | 0.0 | 0.00 | 0.00 | 0.00 | 65 | 1009.3 |
| 20260508235341 | 59 | 312 | 0.0 | 1.7 | 0.00 | 0.00 | 0.00 | 65 | 1009.5 |
| 20260508234321 | 59 | 329 | 0.0 | 0.0 | 0.00 | 0.00 | 0.00 | 65 | 1009.6 |
| 20260508233247 | 60 | 338 | 0.0 | 1.7 | 0.00 | 0.00 | 0.00 | 64 | 1009.4 |
| 20260508224803 | 62 | 359 | 0.0 | 0.9 | 0.00 | 0.00 | 0.00 | 56 | 1009.3 |
| 20260508223817 | 63 | 25 | 0.0 | 0.9 | 0.00 | 0.00 | 0.00 | 54 | 1009.3 |
| 20260508222741 | 64 | 111 | 0.0 | 1.7 | 0.00 | 0.00 | 0.00 | 54 | 1009.3 |
| 20260508220645 | 63 | 42 | 0.0 | 0.0 | 0.00 | 0.00 | 0.00 | 52 | 1009.3 |
| 20260508215611 | 64 | 64 | 0.0 | 0.0 | 0.00 | 0.00 | 0.00 | 51 | 1009.4 |
| 20260508214557 | 64 | 98 | 0.0 | 0.0 | 0.00 | 0.00 | 0.00 | 50 | 1009.5 |
| 20260508213614 | 64 | 90 | 0.0 | 0.9 | 0.00 | 0.00 | 0.00 | 50 | 1009.6 |